Location: San Martino di Castrozza
(46.2667°N, 11.8000°E)
Time: 03:19:15
(UTC+00:00)

Cosmos 1400 Rocket - Pass Details

Date: 23 April 2021
Orbit: 522 x 566 km, 81.2° (Epoch: 15 May)

Event Time Altitude Azimuth Distance (km) Brightness Sun altitude
Rises 02:44:35 0° 351° (N) 2,769 6.8 -14.2°
Reaches altitude 10° 02:46:48 10° 354° (N) 1,871 5.9 -13.9°
Maximum altitude 02:50:55 68° 77° (ENE) 613 3.2 -13.3°
Drops below altitude 10° 02:55:01 10° 162° (SSE) 1,859 5.4 -12.7°
Sets 02:57:11 0° 164° (SSE) 2,748 6.2 -12.4°
